Flag for Spain Weather past 2 weeks in Santa Cruz de Tenerife, Canary Islands, Spain

Now
50 °F

Passing clouds.


Feels Like: 50 °F
Forecast: 63 / 69 °F
Wind: 1 mph from North

Location: Tenerife / Los Rodeos

Current Time: Mar 3, 2015 at 7:53:25 AM

Latest Report: Mar 3, 2015 at 7:00 AM


Visibility: N/A

Pressure: 30.21 "Hg

Humidity: 88%

Dew point: 46 °F

Location of Santa Cruz de TenerifeLocation

Historic Weather in Santa Cruz de Tenerife — Graph

°F

Santa Cruz de Tenerife temperature yesterday

Maximum temperature yesterday: 59 °F (at 3:00 PM)
Minimum temperature yesterday: 46 °F (at 6:00 AM)
Average temperature yesterday: 54 °F

Past Weeks' High & Low Weather Summary

 TemperatureHumidityPressure
High63 °F (Feb 25, 2:30 PM)100% (Feb 16, 6:00 AM)30.42 "Hg (Feb 16, 6:00 AM)
Low46 °F (Mar 2, 6:00 AM)55% (Feb 25, 6:00 PM)30.18 "Hg (Feb 18, 2:00 PM)
Average54 °F88%30.30 "Hg
* Reported Feb 16 6:00 AM — Mar 3 6:30 AM, Santa Cruz de Tenerife, Weather by CustomWeather, © 2015

Note: Actual official high and low records may vary slightly from our data, if they occured in-between our weather recording intervals... More about our weather records

Advertising

Santa Cruz de Tenerife weather history for previous 24 hours

 ConditionsComfort  
Time TempWeatherWind HumidityBarometerVisibility
6:30 AM
Tue, Mar 3
48 °FPassing clouds.No wind94%30.21 "HgN/A
6:00 AM52 °FPassing clouds.3 mph82%30.21 "HgN/A
11:00 PM
Mon, Mar 2
52 °FPassing clouds.2 mph94%30.27 "HgN/A
10:30 PM52 °FPassing clouds.No wind88%30.27 "HgN/A
10:00 PM52 °FPassing clouds.2 mph88%30.27 "HgN/A
9:30 PM52 °FPassing clouds.6 mph94%30.27 "HgN/A
8:30 PM52 °FPassing clouds.6 mph94%30.27 "HgN/A
8:00 PM54 °FPassing clouds.9 mph88%30.24 "HgN/A
7:30 PM54 °FPassing clouds.10 mph88%30.24 "HgN/A
7:00 PM54 °FPartly sunny.7 mph88%30.24 "HgN/A
6:30 PM55 °FPartly sunny.7 mph82%30.24 "HgN/A
6:00 PM55 °FPartly sunny.6 mph88%30.24 "HgN/A
5:30 PM55 °FPartly sunny.2 mph82%30.24 "HgN/A
5:00 PM55 °FPartly sunny.3 mph82%30.24 "HgN/A
4:30 PM57 °FPartly sunny.7 mph82%30.24 "HgN/A
4:00 PM57 °FPartly sunny.7 mph82%30.24 "HgN/A
3:30 PM57 °FScattered clouds.8 mph77%30.24 "HgN/A
3:00 PM59 °FScattered clouds.7 mph77%30.24 "HgN/A
2:30 PM57 °FScattered clouds.9 mph77%30.24 "HgN/A
2:00 PM57 °FScattered clouds.7 mph82%30.27 "HgN/A
1:30 PM57 °FScattered clouds.8 mph77%30.27 "HgN/A
1:00 PM57 °FScattered clouds.10 mph77%30.30 "HgN/A
12:30 PM55 °FPartly sunny.9 mph77%30.30 "HgN/A
12:00 PM55 °FPartly sunny.12 mph82%30.30 "HgN/A
11:30 AM55 °FPartly sunny.14 mph88%30.33 "HgN/A
11:00 AM54 °FPartly sunny.12 mph88%30.33 "HgN/A
10:30 AM54 °FPartly sunny.10 mph88%30.33 "HgN/A
10:00 AM54 °FPartly sunny.9 mph82%30.33 "HgN/A
9:30 AM52 °FPartly sunny.5 mph88%30.33 "HgN/A
9:00 AM54 °FPassing clouds.3 mph82%30.30 "HgN/A
8:30 AM52 °FPassing clouds.1 mph88%30.30 "HgN/A
8:00 AM48 °FPassing clouds.2 mph94%30.30 "HgN/A
7:30 AM48 °FPassing clouds.3 mph94%30.30 "HgN/A
7:00 AM48 °FPassing clouds.3 mph94%30.30 "HgN/A
Weather by CustomWeather, © 2015

See weather overviewHow to use our weather pages